SCP
0 -0 -0 0 -0 0 0 -0 0 0 0 0 0 -0 -0 -0 -0 -0 -0 -0 0 0
0 -0 -0 -0 -0 -0 -0 0 0 0 0 0 0 0 0 -0 -0 -0 -0 -0 0 0
-0 -0 -0 -0 -0 -0 -0 0 -0 0 0 0 -0 -0 0 0 0 -0 0 -0 -0 0
0 -0 -0 -0 -0 -0 -0 0 0 0 0 0 0 -0 0 0 0 -0 0 0 0 0
0 0 -0 -0 -0 0 0 0 0 0 0 0 0 -0 -0 0 0 0 0 0 0 0
0 0 0 0 -0 0 0 0 0 0 0 0 0 0 0 -0 0 0 0 0 0 0
0 0 0 0 0 0 0 0 0 0 0 0 0 0 0 0 -0 0 0 0 0 0
0 0 0 0 0 0 0 0 0 0 0 0 0 0 0 0 0 0 0 0 0 0
0 0 0 0 0 0 0 0 0 0 0 0 0 0 0 0 0 0 0 0 0 0
0 0 0 0 0 0 0 0 0 0 0 0 0 0 0 -0 0 -0 -0 0 0 0
0 0 0 0 0 0 0 0 0 0 0 0 0 0 0 0 0 0 0 0 0 0
0 0 0 0 0 0 0 0 0 0 0 0 0 0 0 0 0 0 0 0 0 0
0 0 0 0 0 0 0 0 0 0 0 0 0 0 0 0 0 0 0 0 0 0
0 0 0 0 0 0 0 0 0 0 0 0 0 0 0 0 0 0 0 0 0 0
Wind_Speed_500mb
44 40 30 27 28 29 21 21 21 16 12 16 21 25 27 23 24 24 22 21 16 13
45 45 38 29 27 22 21 15 28 25 29 19 21 27 22 21 21 25 25 27 27 25
51 45 42 36 32 26 21 21 19 16 21 19 25 22 21 19 23 22 18 21 26 29
54 46 41 42 42 34 30 30 30 27 22 21 17 18 17 19 23 21 18 16 17 22
49 45 44 44 50 45 36 33 30 25 20 26 25 22 20 17 20 26 21 12 14 20
45 46 49 48 48 48 46 45 42 39 34 27 29 28 28 24 24 25 26 24 20 13
50 54 54 49 44 49 49 46 42 41 40 39 37 34 34 35 34 30 30 27 29 26
55 54 55 52 50 46 44 43 42 39 37 35 37 37 34 35 37 36 33 31 30 31
35 27 29 45 52 50 45 44 44 45 42 38 38 38 35 35 36 35 31 31 28 27
39 21 21 37 27 27 34 42 42 46 46 45 44 41 41 42 45 43 43 46 48 48
18 26 29 35 31 29 36 47 45 46 48 49 45 40 43 44 46 50 54 57 56 53
20 11 11 24 36 44 45 45 40 34 36 34 35 37 40 47 52 53 52 52 55 58
20 15 11 9 6 1 5 6 13 19 20 27 35 41 44 45 48 51 53 53 55 56
12 12 10 8 5 4 5 4 2 8 3 5 14 22 29 29 29 32 45 49 52 54
Wind_Direction_500mb
217 224 227 233 212 237 217 214 207 215 234 220 207 205 215 231 231 228 234 241 253 249
221 225 219 219 214 213 216 250 225 249 253 245 216 217 222 225 222 230 239 246 248 248
218 220 218 216 218 215 224 242 239 256 222 235 208 214 225 215 222 221 232 236 238 241
217 222 223 224 222 219 231 239 247 249 249 226 219 203 214 224 229 229 225 244 253 238
212 220 226 227 219 226 230 237 246 243 239 236 234 226 218 226 239 242 251 256 265 239
225 229 233 236 230 229 233 237 242 248 251 258 240 243 245 248 252 257 262 249 251 257
226 229 232 229 234 236 240 243 248 250 253 252 251 254 254 256 262 265 264 259 255 261
229 226 234 236 233 229 235 237 244 248 252 254 249 253 257 259 265 263 260 261 265 272
249 229 226 235 239 240 235 233 235 235 238 245 252 256 255 258 262 264 263 268 273 278
238 251 265 245 237 244 253 247 246 250 246 243 247 245 252 254 256 260 263 270 271 271
235 234 257 262 270 266 270 255 246 246 249 253 251 256 258 258 259 261 260 262 267 272
134 167 226 243 253 253 256 261 254 244 244 255 261 266 263 263 263 263 261 261 261 267
131 152 167 161 162 248 5 287 278 274 272 261 259 268 274 269 268 268 269 268 263 264
177 195 198 172 142 103 87 75 94 122 68 298 256 271 278 283 287 283 270 271 272 271
Wind_Speed_850mb
44 40 30 27 28 29 21 21 21 16 12 16 21 25 27 23 24 24 22 21 16 13
45 45 38 29 27 22 21 15 28 25 29 19 21 27 22 21 21 25 25 27 27 25
51 45 42 36 32 26 21 21 19 16 21 19 25 22 21 19 23 22 18 21 26 29
54 46 41 42 42 34 30 30 30 27 22 21 17 18 17 19 23 21 18 16 17 22
49 45 44 44 50 45 36 33 30 25 20 26 25 22 20 17 20 26 21 12 14 20
45 46 49 48 48 48 46 45 42 39 34 27 29 28 28 24 24 25 26 24 20 13
50 54 54 49 44 49 49 46 42 41 40 39 37 34 34 35 34 30 30 27 29 26
55 54 55 52 50 46 44 43 42 39 37 35 37 37 34 35 37 36 33 31 30 31
35 27 29 45 52 50 45 44 44 45 42 38 38 38 35 35 36 35 31 31 28 27
39 21 21 37 27 27 34 42 42 46 46 45 44 41 41 42 45 43 43 46 48 48
18 26 29 35 31 29 36 47 45 46 48 49 45 40 43 44 46 50 54 57 56 53
20 11 11 24 36 44 45 45 40 34 36 34 35 37 40 47 52 53 52 52 55 58
20 15 11 9 6 1 5 6 13 19 20 27 35 41 44 45 48 51 53 53 55 56
12 12 10 8 5 4 5 4 2 8 3 5 14 22 29 29 29 32 45 49 52 54
Wind_Direction_850mb
217 224 227 233 212 237 217 214 207 215 234 220 207 205 215 231 231 228 234 241 253 249
221 225 219 219 214 213 216 250 225 249 253 245 216 217 222 225 222 230 239 246 248 248
218 220 218 216 218 215 224 242 239 256 222 235 208 214 225 215 222 221 232 236 238 241
217 222 223 224 222 219 231 239 247 249 249 226 219 203 214 224 229 229 225 244 253 238
212 220 226 227 219 226 230 237 246 243 239 236 234 226 218 226 239 242 251 256 265 239
225 229 233 236 230 229 233 237 242 248 251 258 240 243 245 248 252 257 262 249 251 257
226 229 232 229 234 236 240 243 248 250 253 252 251 254 254 256 262 265 264 259 255 261
229 226 234 236 233 229 235 237 244 248 252 254 249 253 257 259 265 263 260 261 265 272
249 229 226 235 239 240 235 233 235 235 238 245 252 256 255 258 262 264 263 268 273 278
238 251 265 245 237 244 253 247 246 250 246 243 247 245 252 254 256 260 263 270 271 271
235 234 257 262 270 266 270 255 246 246 249 253 251 256 258 258 259 261 260 262 267 272
134 167 226 243 253 253 256 261 254 244 244 255 261 266 263 263 263 263 261 261 261 267
131 152 167 161 162 248 5 287 278 274 272 261 259 268 274 269 268 268 269 268 263 264
177 195 198 172 142 103 87 75 94 122 68 298 256 271 278 283 287 283 270 271 272 271